Terminal Aerodrome Forecast
Issued by NWS

Home | Current Version | Previous Version | Text Only | Print | Product List | Glossary On
Versions: 1 2 3 4 5 6 7 8 9 10 11 12
000
FTUS42 TJSJ 240500
TAFNCM
TAF
TNCM 240531Z 2406/2506 12005KT P6SM SCT018
     FM241300 12012KT P6SM SCT022=

USA.gov is the U.S. government's official web portal to all federal, state and local government web resources and services.